Perry, FL

3:53 AM EDT on May 25, 2017 (GMT -0400)
Perry

Weather History for K40J - October, 2011

Change the Weather History Date:

Sunday, October 30, 2011

  Actual Average (KVLD) Record (KVLD)
Temperature  
Mean Temperature 59 °F -  
Max Temperature 73 °F 76 °F 86 °F (1998)
Min Temperature 46 °F 52 °F 34 °F (2008)
Degree Days  
Heating Degree Days 6    
Growing Degree Days 9 (Base 50)    
Moisture  
Dew Point 43 °F    
Average Humidity 59    
Maximum Humidity 74    
Minimum Humidity 43    
Precipitation  
Precipitation 0.00 in - - ()
Sea Level Pressure  
Sea Level Pressure 30.14 in    
Wind  
Wind Speed 7 mph (NE)    
Max Wind Speed 12 mph    
Max Gust Speed 22 mph    
Averages and records for this station are not official NWS values.
T = Trace of Precipitation, MM = Missing Value Source: NWS Daily Summary

Daily Weather History Graph

Daily Weather History Graph

Search for Another Location

Airport or City:

Trip Planner

Search our weather history database for the weather conditions in past years. The results will help you decide how hot, cold, wet, or windy it might be!

Date:

Astronomy

Oct. 30, 2011 Rise Set
Actual Time 7:46 AM EDT 6:48 PM EDT
Civil Twilight 7:21 AM EDT 7:13 PM EDT
Nautical Twilight 6:53 AM EDT 7:41 PM EDT
Astronomical Twilight 6:25 AM EDT 8:09 PM EDT
Moon 11:52 AM EDT (10/30) 10:28 PM EDT (10/30)
Length of Visible Light 11h 51m
Length of Day
11h 02m
Waxing Crescent, 20% of the Moon is Illuminated
Oct 30
Waxing Crescent
Nov 2
First Quarter
Nov 10
Full
Nov 18
Last Quarter
Nov 25
New

Hourly Weather History & Observations

Time (EDT) Temp. Windchill Dew Point Humidity Pressure Visibility Wind Dir Wind Speed Gust Speed Precip Events Conditions
12:53 AM 48.9 °F - 37.9 °F 66% 30.12 in - NNE 4.6 mph - N/A   Unknown
1:53 AM 48.0 °F - 39.0 °F 71% 30.12 in - NE 4.6 mph - N/A   Unknown
2:53 AM 46.9 °F - 39.0 °F 74% 30.12 in - NNE 4.6 mph - N/A   Unknown
3:53 AM 48.0 °F - 37.9 °F 68% 30.11 in - NE 9.2 mph - N/A   Unknown
4:53 AM 46.0 °F 42.5 °F 37.0 °F 71% 30.12 in - NE 6.9 mph - N/A   Unknown
5:53 AM 46.0 °F 42.5 °F 36.0 °F 68% 30.13 in - NNE 6.9 mph - N/A   Unknown
6:53 AM 46.0 °F 42.5 °F 35.1 °F 66% 30.15 in - NE 6.9 mph - N/A   Unknown
7:53 AM 46.0 °F 41.9 °F 33.1 °F 61% 30.16 in - NE 8.1 mph - N/A   Unknown
8:53 AM 50.0 °F - 34.0 °F 54% 30.18 in - NNE 8.1 mph - N/A   Unknown
9:53 AM 55.0 °F - 37.0 °F 51% 30.20 in - NE 8.1 mph 21.9 mph N/A   Unknown
10:53 AM 60.1 °F - 41.0 °F 49% 30.20 in - NE 11.5 mph 21.9 mph N/A   Unknown
11:53 AM 63.0 °F - 43.0 °F 48% 30.19 in - Variable 6.9 mph 21.9 mph N/A   Unknown
12:53 PM 66.9 °F - 45.0 °F 45% 30.17 in - NE 11.5 mph 18.4 mph N/A   Unknown
1:53 PM 69.1 °F - 46.0 °F 44% 30.14 in - NE 11.5 mph 18.4 mph N/A   Unknown
2:53 PM 72.0 °F - 48.0 °F 43% 30.12 in - East 8.1 mph - N/A   Unknown
3:53 PM 72.0 °F - 48.9 °F 44% 30.12 in - NE 10.4 mph 16.1 mph N/A   Unknown
4:53 PM 72.0 °F - 48.9 °F 44% 30.11 in - NE 9.2 mph 18.4 mph N/A   Unknown
5:53 PM 71.1 °F - 50.0 °F 47% 30.11 in - NE 5.8 mph - N/A   Unknown
6:53 PM 66.0 °F - 51.1 °F 59% 30.12 in - NNE 5.8 mph - N/A   Unknown
7:53 PM 62.1 °F - 51.1 °F 67% 30.14 in - NE 6.9 mph - N/A   Unknown
8:53 PM 63.0 °F - 51.1 °F 65% 30.15 in - ENE 4.6 mph - N/A   Unknown
9:53 PM 61.0 °F - 50.0 °F 67% 30.16 in - NE 8.1 mph - N/A   Unknown
10:53 PM 60.1 °F - 48.9 °F 67% 30.16 in - NE 8.1 mph - N/A   Unknown
11:53 PM 59.0 °F - 48.9 °F 69% 30.16 in - NE 5.8 mph - N/A   Unknown